Location: Poughquag
(41.6090°N, 73.6820°W)
Time: 14:39:07
(UTC-04:00)

ISS - Pass Details

Date: 24 May 2019
Orbit: 410 x 420 km, 51.6° (Epoch: 20 August)

Event Time Altitude Azimuth Distance (km) Brightness Sun altitude
Rises 21:11:03 0° 278° (W) 2,354 1.2 -9.4°
Reaches altitude 10° 21:13:34 10° 297° (WNW) 1,496 0.5 -9.7°
Maximum altitude 21:16:04 19° 345° (NNW) 1,068 -0.9 -10.1°
Drops below altitude 10° 21:18:34 10° 33° (NNE) 1,506 -0.9 -10.4°
Sets 21:21:07 0° 52° (NE) 2,375 -0.1 -10.8°
